Вернуться в каталог

COSMOS 2581

АктивенВоенныеPO
NORAD 62902·PAYLOAD·🇷🇺 Russia

Запущен Feb 5, 2025 с Plesetsk Cosmodrome

Loading…

Ближайшие Пролёты (ближайшие 24 часа)

TLE

СвежийSource: Space-Track

Эпоха: Sep 14, 2026, 18:28 UTC

1 62902U 25026A   26257.76997721  .00000988  00000-0  87687-4 0  9999
2 62902  81.9989 343.0768 0011376 116.8069 243.4315 14.95171138 87608

Отслеживайте COSMOS 2581 в реальном времени с AllMySat

Download on the App Store